QPF
0.00 0.00 0.00 0.00 0.00 0.00 0.00 0.00 0.01 0.00 0.00 0.00 0.00 0.00 0.00 0.00 0.00 0.00 0.00 0.00 0.00 0.00 0.00 0.01 0.01 0.01 0.01 0.01 0.01 0.01 0.02 0.02 0.01 0.01 0.01 0.02 0.03 0.03 0.04 0.07 0.13 0.15 0.12 0.09
0.00 0.00 0.00 0.00 0.00 0.00 0.00 0.00 0.00 0.00 0.00 0.00 0.00 0.00 0.00 0.00 0.01 0.00 0.01 0.00 0.00 0.00 0.00 0.01 0.02 0.01 0.01 0.01 0.01 0.02 0.02 0.02 0.01 0.01 0.01 0.02 0.03 0.04 0.04 0.05 0.08 0.09 0.06 0.04
0.00 0.00 0.00 0.00 0.00 0.00 0.00 0.00 0.00 0.00 0.00 0.00 0.00 0.01 0.00 0.00 0.00 0.00 0.00 0.00 0.00 0.00 0.00 0.01 0.02 0.02 0.01 0.01 0.01 0.02 0.03 0.03 0.03 0.03 0.03 0.03 0.03 0.04 0.05 0.05 0.06 0.05 0.03 0.02
0.00 0.00 0.00 0.00 0.00 0.00 0.00 0.00 0.00 0.00 0.00 0.00 0.00 0.00 0.00 0.00 0.00 0.00 0.00 0.00 0.00 0.00 0.01 0.02 0.02 0.03 0.01 0.01 0.01 0.02 0.03 0.04 0.05 0.06 0.06 0.05 0.04 0.05 0.06 0.05 0.04 0.03 0.02 0.02
0.00 0.00 0.00 0.00 0.00 0.00 0.00 0.00 0.00 0.00 0.00 0.00 0.00 0.00 0.00 0.00 0.00 0.00 0.00 0.00 0.00 0.00 0.01 0.01 0.01 0.01 0.01 0.01 0.02 0.02 0.02 0.03 0.06 0.06 0.04 0.03 0.03 0.04 0.05 0.04 0.03 0.01 0.02 0.01
0.00 0.00 0.00 0.00 0.00 0.00 0.00 0.00 0.00 0.00 0.00 0.00 0.00 0.00 0.00 0.00 0.00 0.00 0.00 0.00 0.00 0.00 0.00 0.01 0.01 0.01 0.00 0.01 0.01 0.01 0.02 0.05 0.06 0.03 0.01 0.01 0.03 0.04 0.04 0.03 0.02 0.01 0.01 0.01
0.00 0.00 0.00 0.00 0.00 0.00 0.00 0.00 0.00 0.00 0.00 0.00 0.00 0.00 0.00 0.00 0.00 0.00 0.00 0.00 0.00 0.00 0.00 0.01 0.01 0.01 0.00 0.00 0.00 0.01 0.02 0.02 0.02 0.02 0.02 0.02 0.03 0.03 0.02 0.01 0.01 0.01 0.01 0.01
0.00 0.00 0.00 0.00 0.00 0.00 0.00 0.00 0.00 0.00 0.00 0.00 0.00 0.00 0.00 0.00 0.00 0.00 0.00 0.00 0.00 0.00 0.00 0.00 0.01 0.01 0.01 0.01 0.01 0.01 0.01 0.01 0.02 0.02 0.03 0.03 0.03 0.02 0.01 0.02 0.01 0.01 0.01 0.01
0.00 0.00 0.00 0.00 0.00 0.00 0.00 0.00 0.00 0.00 0.00 0.00 0.00 0.00 0.00 0.00 0.00 0.00 0.00 0.00 0.00 0.00 0.00 0.01 0.01 0.01 0.01 0.01 0.01 0.01 0.01 0.01 0.02 0.02 0.03 0.03 0.03 0.03 0.02 0.02 0.01 0.01 0.01 0.00
0.00 0.00 0.00 0.00 0.00 0.00 0.00 0.00 0.00 0.00 0.00 0.00 0.00 0.00 0.00 0.00 0.00 0.00 0.00 0.00 0.00 0.00 0.01 0.01 0.01 0.01 0.01 0.02 0.02 0.02 0.01 0.02 0.04 0.04 0.04 0.03 0.03 0.03 0.02 0.01 0.01 0.01 0.01 0.00
0.00 0.00 0.00 0.00 0.00 0.00 0.00 0.00 0.00 0.00 0.00 0.00 0.00 0.00 0.00 0.00 0.00 0.00 0.00 0.00 0.00 0.01 0.01 0.01 0.01 0.01 0.01 0.02 0.01 0.02 0.03 0.03 0.04 0.04 0.03 0.03 0.02 0.02 0.02 0.02 0.01 0.01 0.01 0.01
0.00 0.00 0.00 0.00 0.00 0.00 0.00 0.00 0.00 0.00 0.00 0.00 0.00 0.00 0.00 0.00 0.00 0.00 0.00 0.00 0.00 0.01 0.01 0.01 0.01 0.01 0.01 0.01 0.01 0.02 0.02 0.03 0.04 0.04 0.05 0.04 0.03 0.02 0.02 0.02 0.02 0.02 0.01 0.01
0.00 0.00 0.00 0.00 0.00 0.00 0.00 0.00 0.00 0.00 0.00 0.00 0.00 0.00 0.00 0.00 0.00 0.00 0.00 0.00 0.00 0.00 0.01 0.01 0.01 0.00 0.00 0.00 0.01 0.03 0.02 0.02 0.03 0.03 0.04 0.04 0.04 0.03 0.02 0.02 0.02 0.02 0.02 0.02
0.00 0.00 0.00 0.00 0.00 0.00 0.00 0.00 0.00 0.00 0.00 0.00 0.00 0.00 0.00 0.00 0.00 0.00 0.00 0.00 0.00 0.00 0.01 0.01 0.01 0.00 0.01 0.01 0.02 0.03 0.02 0.01 0.02 0.02 0.02 0.03 0.03 0.03 0.03 0.02 0.02 0.02 0.03 0.03
0.01 0.00 0.00 0.00 0.00 0.00 0.00 0.00 0.00 0.00 0.00 0.00 0.00 0.00 0.00 0.00 0.00 0.00 0.00 0.00 0.00 0.01 0.01 0.01 0.01 0.01 0.01 0.02 0.03 0.03 0.02 0.02 0.02 0.02 0.03 0.03 0.04 0.03 0.03 0.02 0.02 0.02 0.02 0.02
0.01 0.01 0.01 0.00 0.00 0.00 0.00 0.00 0.00 0.00 0.00 0.00 0.00 0.00 0.00 0.00 0.00 0.00 0.00 0.00 0.01 0.01 0.01 0.01 0.01 0.02 0.03 0.04 0.04 0.04 0.03 0.03 0.03 0.02 0.03 0.03 0.03 0.03 0.03 0.02 0.02 0.02 0.02 0.02
0.00 0.00 0.01 0.01 0.01 0.00 0.00 0.00 0.00 0.00 0.00 0.00 0.00 0.00 0.00 0.00 0.00 0.00 0.00 0.01 0.01 0.01 0.01 0.01 0.01 0.03 0.04 0.05 0.04 0.04 0.03 0.03 0.03 0.02 0.03 0.03 0.03 0.03 0.02 0.02 0.01 0.02 0.02 0.02
0.00 0.00 0.00 0.00 0.01 0.00 0.00 0.00 0.00 0.00 0.00 0.00 0.00 0.00 0.00 0.01 0.00 0.00 0.00 0.00 0.01 0.01 0.02 0.02 0.03 0.05 0.06 0.05 0.04 0.03 0.03 0.03 0.04 0.04 0.05 0.04 0.04 0.03 0.02 0.02 0.02 0.02 0.02 0.03
0.00 0.00 0.00 0.00 0.00 0.00 0.00 0.00 0.00 0.00 0.00 0.00 0.00 0.00 0.01 0.02 0.01 0.01 0.01 0.01 0.01 0.01 0.02 0.05 0.09 0.11 0.08 0.05 0.03 0.03 0.03 0.03 0.03 0.03 0.03 0.03 0.03 0.03 0.02 0.02 0.02 0.02 0.02 0.03
0.00 0.00 0.00 0.00 0.00 0.00 0.00 0.00 0.00 0.00 0.00 0.00 0.01 0.01 0.01 0.02 0.01 0.01 0.01 0.01 0.01 0.01 0.01 0.04 0.07 0.06 0.03 0.02 0.02 0.02 0.03 0.03 0.02 0.03 0.03 0.02 0.02 0.02 0.02 0.02 0.02 0.02 0.02 0.02
0.01 0.01 0.00 0.00 0.00 0.00 0.00 0.00 0.00 0.00 0.00 0.00 0.00 0.01 0.01 0.01 0.01 0.01 0.02 0.01 0.00 0.01 0.00 0.00 0.01 0.01 0.01 0.01 0.02 0.01 0.01 0.01 0.02 0.03 0.03 0.02 0.02 0.02 0.01 0.02 0.03 0.04 0.03 0.02
0.00 0.01 0.01 0.00 0.00 0.00 0.00 0.00 0.00 0.00 0.00 0.00 0.00 0.00 0.01 0.01 0.01 0.03 0.02 0.01 0.00 0.00 0.00 0.00 0.01 0.01 0.01 0.01 0.02 0.02 0.02 0.01 0.01 0.02 0.02 0.02 0.03 0.02 0.02 0.02 0.02 0.03 0.04 0.03
0.00 0.00 0.01 0.00 0.00 0.00 0.00 0.00 0.00 0.00 0.00 0.00 0.00 0.01 0.01 0.01 0.02 0.01 0.01 0.01 0.01 0.00 0.01 0.01 0.01 0.01 0.01 0.01 0.02 0.03 0.03 0.02 0.01 0.02 0.02 0.03 0.03 0.03 0.03 0.03 0.03 0.02 0.05 0.07
0.00 0.00 0.01 0.01 0.00 0.00 0.00 0.00 0.00 0.00 0.00 0.00 0.00 0.00 0.00 0.00 0.01 0.01 0.01 0.01 0.01 0.00 0.01 0.01 0.01 0.01 0.01 0.02 0.02 0.02 0.02 0.01 0.01 0.02 0.02 0.02 0.02 0.02 0.02 0.03 0.03 0.02 0.02 0.04
0.01 0.00 0.01 0.01 0.01 0.00 0.00 0.00 0.00 0.00 0.00 0.00 0.00 0.00 0.00 0.00 0.00 0.01 0.00 0.00 0.00 0.00 0.01 0.00 0.00 0.01 0.01 0.01 0.01 0.01 0.01 0.01 0.01 0.01 0.01 0.01 0.01 0.01 0.02 0.02 0.02 0.02 0.02 0.02
0.01 0.00 0.00 0.01 0.01 0.00 0.00 0.00 0.00 0.00 0.00 0.00 0.00 0.00 0.00 0.00 0.00 0.00 0.00 0.00 0.00 0.00 0.00 0.00 0.01 0.01 0.01 0.01 0.01 0.02 0.01 0.01 0.02 0.01 0.02 0.01 0.01 0.01 0.02 0.02 0.02 0.02 0.01 0.01
MSLP
1010.14 1010.66 1011.05 1011.31 1011.45 1011.51 1011.52 1011.52 1011.54 1011.58 1011.63 1011.66 1011.67 1011.64 1011.58 1011.50 1011.41 1011.37 1011.37 1011.45 1011.60 1011.81 1012.06 1012.33 1012.60 1012.87 1013.13 1013.41 1013.70 1014.04 1014.40 1014.79 1015.18 1015.54 1015.83 1016.04 1016.14 1016.14 1016.05 1015.92 1015.78 1015.66 1015.58 1015.56
1010.98 1011.42 1011.71 1011.85 1011.88 1011.84 1011.78 1011.75 1011.76 1011.80 1011.85 1011.89 1011.89 1011.82 1011.70 1011.54 1011.38 1011.25 1011.18 1011.21 1011.32 1011.51 1011.76 1012.03 1012.31 1012.59 1012.86 1013.13 1013.44 1013.78 1014.17 1014.59 1015.01 1015.40 1015.73 1015.96 1016.07 1016.07 1015.97 1015.82 1015.66 1015.53 1015.45 1015.44
1011.64 1011.99 1012.17 1012.20 1012.14 1012.05 1011.98 1011.96 1012.00 1012.09 1012.18 1012.24 1012.23 1012.12 1011.93 1011.67 1011.40 1011.16 1011.01 1010.95 1011.02 1011.18 1011.42 1011.70 1012.00 1012.30 1012.58 1012.88 1013.20 1013.55 1013.96 1014.39 1014.84 1015.26 1015.61 1015.85 1015.97 1015.97 1015.87 1015.70 1015.53 1015.39 1015.31 1015.31
1012.07 1012.31 1012.39 1012.36 1012.26 1012.17 1012.13 1012.18 1012.31 1012.48 1012.64 1012.74 1012.72 1012.56 1012.27 1011.89 1011.48 1011.11 1010.83 1010.67 1010.67 1010.79 1011.02 1011.31 1011.63 1011.95 1012.27 1012.59 1012.93 1013.31 1013.72 1014.17 1014.64 1015.07 1015.43 1015.69 1015.82 1015.82 1015.72 1015.55 1015.37 1015.22 1015.15 1015.16
1012.25 1012.40 1012.41 1012.34 1012.26 1012.22 1012.28 1012.44 1012.70 1012.98 1013.22 1013.35 1013.32 1013.10 1012.70 1012.18 1011.61 1011.07 1010.64 1010.37 1010.27 1010.34 1010.55 1010.85 1011.19 1011.55 1011.90 1012.24 1012.60 1012.99 1013.42 1013.88 1014.35 1014.80 1015.17 1015.45 1015.59 1015.60 1015.50 1015.34 1015.15 1015.01 1014.93 1014.94
1012.22 1012.29 1012.26 1012.20 1012.16 1012.22 1012.40 1012.71 1013.11 1013.51 1013.84 1014.00 1013.95 1013.66 1013.15 1012.48 1011.75 1011.05 1010.47 1010.07 1009.87 1009.88 1010.06 1010.35 1010.71 1011.08 1011.46 1011.82 1012.20 1012.59 1013.02 1013.48 1013.95 1014.40 1014.79 1015.08 1015.24 1015.27 1015.18 1015.03 1014.85 1014.70 1014.63 1014.64
1012.05 1012.05 1012.00 1011.96 1012.00 1012.16 1012.48 1012.94 1013.47 1013.98 1014.39 1014.58 1014.51 1014.16 1013.55 1012.75 1011.88 1011.04 1010.33 1009.81 1009.53 1009.48 1009.62 1009.89 1010.24 1010.62 1010.99 1011.36 1011.72 1012.10 1012.52 1012.96 1013.43 1013.87 1014.27 1014.57 1014.75 1014.81 1014.74 1014.60 1014.44 1014.30 1014.22 1014.24
1011.79 1011.75 1011.69 1011.69 1011.79 1012.05 1012.48 1013.06 1013.69 1014.29 1014.75 1014.96 1014.88 1014.49 1013.82 1012.94 1011.98 1011.05 1010.25 1009.66 1009.31 1009.21 1009.31 1009.55 1009.87 1010.22 1010.57 1010.90 1011.23 1011.57 1011.95 1012.36 1012.80 1013.23 1013.63 1013.94 1014.14 1014.22 1014.19 1014.07 1013.92 1013.79 1013.71 1013.73
1011.52 1011.45 1011.39 1011.40 1011.55 1011.88 1012.38 1013.01 1013.70 1014.34 1014.82 1015.06 1014.98 1014.58 1013.90 1013.01 1012.03 1011.08 1010.26 1009.65 1009.28 1009.14 1009.20 1009.40 1009.67 1009.96 1010.25 1010.52 1010.78 1011.06 1011.37 1011.73 1012.12 1012.53 1012.91 1013.22 1013.44 1013.55 1013.54 1013.45 1013.33 1013.21 1013.14 1013.15
1011.30 1011.20 1011.13 1011.15 1011.31 1011.64 1012.15 1012.78 1013.47 1014.10 1014.58 1014.82 1014.76 1014.40 1013.77 1012.94 1012.03 1011.14 1010.37 1009.80 1009.44 1009.29 1009.32 1009.47 1009.68 1009.90 1010.10 1010.28 1010.45 1010.63 1010.86 1011.14 1011.47 1011.83 1012.18 1012.49 1012.72 1012.84 1012.87 1012.81 1012.71 1012.60 1012.54 1012.55
1011.14 1011.03 1010.94 1010.95 1011.08 1011.38 1011.83 1012.40 1013.02 1013.59 1014.03 1014.27 1014.24 1013.95 1013.42 1012.72 1011.95 1011.20 1010.56 1010.07 1009.77 1009.64 1009.66 1009.76 1009.90 1010.02 1010.13 1010.20 1010.26 1010.34 1010.47 1010.66 1010.91 1011.21 1011.52 1011.80 1012.03 1012.17 1012.22 1012.19 1012.11 1012.03 1011.98 1012.00
1011.06 1010.95 1010.85 1010.83 1010.91 1011.13 1011.47 1011.92 1012.42 1012.90 1013.27 1013.48 1013.49 1013.29 1012.90 1012.38 1011.80 1011.24 1010.76 1010.40 1010.19 1010.10 1010.12 1010.18 1010.25 1010.29 1010.29 1010.26 1010.22 1010.20 1010.23 1010.32 1010.49 1010.72 1010.97 1011.22 1011.43 1011.57 1011.63 1011.62 1011.58 1011.52 1011.49 1011.51
1011.04 1010.95 1010.86 1010.81 1010.82 1010.93 1011.14 1011.43 1011.78 1012.12 1012.40 1012.57 1012.61 1012.50 1012.27 1011.94 1011.57 1011.21 1010.92 1010.71 1010.60 1010.57 1010.59 1010.63 1010.65 1010.62 1010.54 1010.43 1010.30 1010.20 1010.14 1010.15 1010.24 1010.39 1010.57 1010.77 1010.94 1011.06 1011.13 1011.14 1011.11 1011.08 1011.07 1011.11
1011.08 1011.02 1010.95 1010.87 1010.82 1010.82 1010.88 1011.00 1011.17 1011.35 1011.52 1011.64 1011.69 1011.66 1011.56 1011.41 1011.25 1011.10 1010.98 1010.92 1010.92 1010.95 1010.99 1011.01 1011.00 1010.93 1010.81 1010.64 1010.47 1010.30 1010.18 1010.12 1010.13 1010.20 1010.32 1010.44 1010.56 1010.65 1010.70 1010.71 1010.70 1010.69 1010.70 1010.75
1011.13 1011.13 1011.08 1010.99 1010.88 1010.78 1010.70 1010.65 1010.64 1010.67 1010.71 1010.76 1010.80 1010.83 1010.84 1010.85 1010.85 1010.88 1010.92 1010.99 1011.08 1011.17 1011.24 1011.27 1011.25 1011.16 1011.03 1010.85 1010.66 1010.47 1010.32 1010.21 1010.16 1010.15 1010.18 1010.23 1010.28 1010.32 1010.33 1010.33 1010.32 1010.32 1010.35 1010.40
1011.16 1011.21 1011.19 1011.10 1010.95 1010.76 1010.55 1010.35 1010.18 1010.05 1009.97 1009.95 1009.97 1010.03 1010.13 1010.25 1010.40 1010.56 1010.74 1010.91 1011.08 1011.22 1011.32 1011.37 1011.37 1011.31 1011.19 1011.04 1010.86 1010.68 1010.52 1010.38 1010.27 1010.20 1010.14 1010.10 1010.07 1010.04 1010.01 1009.97 1009.95 1009.95 1009.98 1010.03
1011.13 1011.21 1011.22 1011.12 1010.93 1010.67 1010.35 1010.02 1009.71 1009.46 1009.28 1009.18 1009.18 1009.26 1009.42 1009.64 1009.90 1010.17 1010.45 1010.71 1010.94 1011.13 1011.27 1011.36 1011.39 1011.37 1011.30 1011.19 1011.06 1010.91 1010.76 1010.60 1010.46 1010.31 1010.18 1010.05 1009.92 1009.81 1009.71 1009.64 1009.59 1009.57 1009.58 1009.63
1010.99 1011.08 1011.08 1010.96 1010.73 1010.40 1010.00 1009.56 1009.15 1008.79 1008.53 1008.40 1008.38 1008.49 1008.71 1009.01 1009.36 1009.73 1010.10 1010.44 1010.73 1010.97 1011.16 1011.29 1011.36 1011.39 1011.38 1011.33 1011.26 1011.15 1011.02 1010.86 1010.68 1010.48 1010.27 1010.05 1009.83 1009.64 1009.47 1009.34 1009.25 1009.20 1009.19 1009.21
1010.73 1010.76 1010.72 1010.55 1010.27 1009.87 1009.39 1008.88 1008.39 1007.97 1007.67 1007.51 1007.52 1007.67 1007.96 1008.35 1008.80 1009.27 1009.72 1010.14 1010.50 1010.80 1011.03 1011.20 1011.33 1011.41 1011.46 1011.48 1011.45 1011.39 1011.28 1011.13 1010.93 1010.68 1010.41 1010.11 1009.81 1009.54 1009.30 1009.11 1008.97 1008.88 1008.84 1008.82
1010.33 1010.27 1010.13 1009.89 1009.52 1009.05 1008.50 1007.93 1007.39 1006.94 1006.64 1006.50 1006.55 1006.77 1007.15 1007.64 1008.20 1008.78 1009.34 1009.85 1010.28 1010.64 1010.93 1011.15 1011.32 1011.46 1011.55 1011.62 1011.64 1011.62 1011.54 1011.39 1011.18 1010.91 1010.58 1010.23 1009.87 1009.53 1009.23 1008.99 1008.81 1008.68 1008.60 1008.54
1009.83 1009.63 1009.36 1009.00 1008.54 1007.99 1007.37 1006.75 1006.19 1005.73 1005.45 1005.35 1005.47 1005.79 1006.28 1006.90 1007.58 1008.28 1008.95 1009.56 1010.08 1010.51 1010.85 1011.12 1011.34 1011.51 1011.65 1011.75 1011.81 1011.82 1011.76 1011.63 1011.42 1011.14 1010.79 1010.41 1010.01 1009.63 1009.29 1009.00 1008.78 1008.61 1008.49 1008.39
1009.28 1008.91 1008.50 1008.01 1007.43 1006.79 1006.11 1005.45 1004.87 1004.43 1004.18 1004.15 1004.35 1004.77 1005.38 1006.12 1006.94 1007.77 1008.56 1009.27 1009.88 1010.38 1010.78 1011.09 1011.34 1011.55 1011.71 1011.84 1011.93 1011.96 1011.93 1011.82 1011.63 1011.35 1011.01 1010.62 1010.22 1009.82 1009.45 1009.14 1008.88 1008.68 1008.52 1008.39
1008.74 1008.21 1007.65 1007.02 1006.34 1005.61 1004.88 1004.19 1003.60 1003.17 1002.96 1002.99 1003.26 1003.78 1004.50 1005.36 1006.29 1007.24 1008.14 1008.95 1009.64 1010.22 1010.67 1011.03 1011.31 1011.54 1011.72 1011.87 1011.98 1012.03 1012.03 1011.95 1011.78 1011.54 1011.22 1010.85 1010.46 1010.06 1009.69 1009.36 1009.09 1008.86 1008.67 1008.50
1008.27 1007.61 1006.92 1006.19 1005.42 1004.62 1003.84 1003.13 1002.53 1002.12 1001.93 1002.00 1002.34 1002.92 1003.71 1004.66 1005.68 1006.72 1007.70 1008.60 1009.37 1010.00 1010.51 1010.91 1011.22 1011.46 1011.67 1011.83 1011.96 1012.04 1012.06 1012.01 1011.88 1011.68 1011.40 1011.06 1010.69 1010.31 1009.95 1009.62 1009.33 1009.08 1008.86 1008.66
1007.91 1007.16 1006.39 1005.60 1004.77 1003.94 1003.14 1002.41 1001.81 1001.40 1001.23 1001.31 1001.67 1002.28 1003.10 1004.08 1005.15 1006.24 1007.28 1008.23 1009.06 1009.75 1010.30 1010.73 1011.07 1011.34 1011.56 1011.74 1011.88 1011.98 1012.03 1012.02 1011.92 1011.76 1011.52 1011.22 1010.88 1010.52 1010.16 1009.83 1009.53 1009.26 1009.02 1008.80
1007.65 1006.87 1006.08 1005.28 1004.45 1003.62 1002.82 1002.10 1001.51 1001.10 1000.91 1000.99 1001.32 1001.92 1002.72 1003.70 1004.77 1005.86 1006.92 1007.90 1008.75 1009.48 1010.06 1010.53 1010.90 1011.19 1011.43 1011.63 1011.79 1011.91 1011.97 1011.98 1011.91 1011.77 1011.56 1011.28 1010.97 1010.62 1010.27 1009.94 1009.63 1009.35 1009.10 1008.87
Thickness
5835 5829 5824 5829 5834 5833 5832 5828 5825 5830 5842 5837 5830 5830 5835 5839 5837 5833 5831 5830 5828 5827 5829 5828 5825 5823 5819 5814 5810 5806 5802 5799 5796 5794 5791 5787 5784 5783 5781 5779 5775 5772 5771 5771
5823 5821 5834 5840 5837 5833 5829 5825 5826 5831 5839 5834 5830 5830 5839 5839 5837 5837 5834 5832 5830 5829 5828 5826 5824 5822 5819 5815 5810 5806 5802 5799 5796 5794 5791 5788 5785 5783 5781 5779 5775 5773 5772 5770
5817 5830 5838 5831 5828 5824 5826 5824 5824 5823 5830 5835 5829 5824 5832 5839 5840 5839 5838 5838 5837 5833 5829 5827 5824 5822 5820 5816 5812 5809 5804 5800 5796 5793 5791 5787 5783 5781 5778 5775 5773 5772 5770 5768
5823 5834 5830 5825 5824 5826 5818 5832 5829 5824 5819 5821 5822 5809 5826 5836 5833 5834 5836 5836 5836 5836 5834 5831 5827 5823 5821 5819 5816 5810 5805 5800 5796 5793 5789 5785 5780 5777 5775 5773 5772 5769 5768 5766
5819 5826 5823 5819 5826 5829 5826 5834 5829 5824 5820 5816 5819 5812 5823 5835 5828 5832 5836 5837 5839 5839 5836 5832 5830 5827 5825 5822 5818 5812 5805 5800 5796 5793 5788 5783 5780 5778 5776 5773 5769 5767 5766 5763
5823 5832 5830 5828 5834 5833 5831 5826 5823 5823 5820 5800 5812 5809 5812 5830 5829 5833 5837 5837 5838 5838 5837 5834 5833 5830 5826 5823 5818 5813 5805 5799 5795 5791 5787 5782 5778 5775 5772 5769 5767 5765 5764 5762
5807 5818 5829 5833 5822 5826 5824 5811 5797 5793 5795 5799 5817 5809 5813 5833 5837 5836 5835 5836 5836 5837 5836 5833 5830 5827 5823 5820 5816 5811 5804 5798 5794 5790 5785 5781 5776 5773 5769 5767 5765 5763 5762 5759
5795 5798 5818 5825 5821 5816 5818 5814 5793 5782 5789 5803 5809 5805 5820 5836 5837 5837 5837 5836 5835 5835 5836 5834 5830 5827 5822 5818 5814 5809 5803 5797 5793 5788 5783 5779 5775 5773 5769 5765 5764 5761 5759 5757
5801 5799 5821 5825 5828 5823 5811 5812 5822 5808 5802 5797 5806 5813 5822 5832 5830 5830 5831 5830 5830 5831 5832 5831 5829 5825 5821 5816 5812 5808 5802 5796 5791 5786 5781 5776 5773 5769 5767 5764 5761 5759 5756 5755
5809 5795 5812 5819 5821 5819 5821 5819 5812 5801 5780 5779 5794 5802 5808 5814 5817 5821 5823 5824 5826 5828 5828 5828 5826 5823 5820 5815 5811 5807 5800 5794 5789 5784 5780 5775 5771 5767 5764 5761 5757 5755 5752 5750
5809 5795 5800 5806 5802 5804 5805 5806 5805 5804 5800 5784 5781 5797 5819 5816 5818 5818 5820 5822 5823 5824 5824 5823 5822 5820 5818 5813 5808 5802 5796 5790 5785 5781 5776 5772 5768 5764 5760 5757 5754 5750 5748 5745
5802 5799 5791 5800 5814 5817 5812 5808 5804 5790 5786 5792 5790 5795 5821 5820 5821 5819 5817 5817 5818 5819 5820 5818 5816 5814 5811 5808 5803 5798 5793 5787 5783 5778 5773 5768 5764 5761 5757 5753 5750 5746 5743 5740
5795 5789 5775 5782 5792 5801 5801 5803 5806 5805 5798 5791 5785 5793 5816 5814 5813 5813 5810 5809 5809 5809 5810 5810 5808 5805 5803 5801 5798 5794 5789 5785 5781 5775 5770 5765 5760 5756 5753 5749 5746 5742 5739 5735
5791 5787 5780 5775 5786 5797 5792 5794 5798 5796 5791 5788 5790 5794 5802 5802 5801 5803 5802 5802 5802 5801 5800 5800 5798 5796 5794 5792 5790 5787 5784 5781 5776 5771 5766 5760 5756 5752 5749 5745 5741 5737 5734 5730
5786 5777 5780 5786 5793 5794 5791 5791 5792 5789 5792 5788 5790 5792 5795 5796 5797 5796 5795 5794 5793 5792 5791 5790 5788 5787 5785 5783 5780 5778 5775 5773 5769 5764 5759 5755 5751 5748 5744 5739 5735 5731 5728 5726
5777 5771 5772 5772 5782 5785 5782 5786 5788 5787 5789 5788 5788 5787 5796 5795 5793 5789 5787 5785 5783 5783 5783 5783 5782 5780 5777 5775 5772 5770 5767 5764 5761 5756 5752 5749 5745 5741 5737 5733 5728 5725 5722 5719
5767 5763 5759 5763 5773 5771 5766 5780 5782 5781 5785 5785 5779 5783 5786 5782 5779 5779 5780 5779 5777 5777 5777 5776 5775 5773 5770 5769 5766 5762 5759 5757 5754 5749 5745 5742 5738 5734 5730 5727 5722 5719 5715 5712
5753 5752 5757 5760 5754 5740 5771 5788 5785 5779 5778 5781 5780 5779 5778 5775 5774 5775 5775 5772 5770 5770 5770 5769 5768 5766 5765 5763 5760 5756 5753 5749 5746 5742 5738 5735 5731 5727 5723 5720 5716 5712 5709 5705
5755 5747 5749 5751 5747 5753 5764 5773 5775 5769 5765 5774 5772 5770 5770 5771 5768 5766 5768 5766 5764 5764 5763 5762 5762 5761 5758 5755 5752 5748 5744 5741 5737 5734 5731 5729 5725 5720 5716 5713 5709 5706 5702 5698
5746 5744 5742 5742 5736 5739 5758 5772 5775 5765 5753 5765 5765 5761 5761 5761 5755 5754 5757 5757 5756 5756 5756 5754 5754 5752 5748 5746 5743 5739 5736 5733 5729 5726 5724 5721 5718 5713 5709 5706 5702 5699 5696 5692
5730 5730 5732 5734 5734 5746 5757 5763 5761 5742 5746 5758 5758 5755 5753 5750 5749 5748 5748 5747 5747 5746 5746 5745 5744 5741 5739 5737 5734 5730 5727 5724 5722 5719 5716 5712 5709 5705 5702 5698 5694 5691 5688 5685
5726 5727 5726 5729 5726 5731 5749 5750 5745 5743 5750 5751 5749 5747 5744 5742 5742 5740 5738 5737 5737 5736 5735 5735 5733 5731 5730 5728 5725 5720 5717 5716 5714 5710 5706 5703 5700 5698 5695 5690 5687 5683 5679 5676
5721 5725 5729 5728 5726 5732 5739 5739 5741 5744 5740 5740 5740 5739 5736 5733 5731 5730 5728 5727 5726 5726 5725 5724 5723 5721 5720 5718 5716 5711 5709 5707 5704 5700 5697 5694 5691 5688 5685 5682 5679 5676 5671 5670
5714 5716 5716 5717 5721 5725 5728 5731 5732 5733 5731 5732 5731 5729 5727 5723 5722 5719 5718 5717 5716 5715 5715 5715 5713 5711 5709 5708 5706 5704 5701 5698 5694 5691 5688 5686 5682 5679 5676 5673 5671 5669 5665 5662
5701 5704 5707 5705 5710 5713 5716 5718 5720 5721 5722 5721 5720 5720 5717 5714 5711 5709 5707 5707 5706 5705 5705 5704 5702 5700 5699 5698 5696 5695 5692 5689 5685 5682 5679 5677 5675 5672 5667 5664 5661 5659 5656 5653
5695 5695 5696 5700 5704 5703 5703 5709 5711 5709 5708 5709 5708 5707 5707 5705 5701 5700 5699 5698 5697 5696 5695 5694 5693 5692 5690 5688 5686 5685 5682 5679 5676 5674 5671 5670 5667 5662 5659 5655 5651 5646 5644 5640